Flag for Poland Weather past 2 weeks in Wroclaw, Poland

Now
64 °F

Light rain. Fog.


Feels Like: 64 °F
Forecast: 60 / 80 °F
Wind: 13 mph from Northeast

Location: Wroclaw Ii

Current Time: Jul 24, 2014 at 4:06:22 PM

Latest Report: Jul 24, 2014 at 3:30 PM


Visibility: 2 mi

Pressure: 29.89 "Hg

Humidity: 94%

Dew point: 63 °F

Location of WroclawLocation

Historic Weather in Wroclaw — Graph

°F

Wroclaw temperature yesterday

Maximum temperature yesterday: 82 °F (at 1:00 PM)
Minimum temperature yesterday: 61 °F (at 5:30 AM)
Average temperature yesterday: 71 °F

Past Weeks' High & Low Weather Summary

 TemperatureHumidityPressure
High93 °F (Jul 20, 5:00 PM)94% (Jul 10, 12:30 AM)30.18 "Hg (Jul 10, 12:30 AM)
Low55 °F (Jul 13, 2:30 AM)26% (Jul 20, 6:00 PM)29.65 "Hg (Jul 9, 3:00 PM)
Average72 °F66%29.93 "Hg
* Reported Jul 9 3:00 PM — Jul 24 3:00 PM, Wroclaw, Weather by CustomWeather, © 2014

Note: Actual official high and low records may vary slightly from our data, if they occured in-between our weather recording intervals... More about our weather records

Advertising

Wroclaw weather history for previous 24 hours

 ConditionsComfort  
Time TempWeatherWind HumidityBarometerVisibility
3:00 PM
Jul 24
64 °FLight rain. Fog.13 mph88%29.89 "Hg3 mi
2:30 PM64 °FLight rain. Fog.13 mph88%29.89 "Hg2 mi
2:00 PM64 °FLight rain. Partly sunny.10 mph88%29.89 "Hg4 mi
1:30 PM64 °FRain. Fog.9 mph88%29.89 "Hg2 mi
1:00 PM63 °FLight rain. Fog.9 mph94%29.89 "Hg3 mi
12:30 PM64 °FHeavy rain. Fog.9 mph88%29.89 "Hg2 mi
12:00 PM64 °FRain. Fog.12 mph88%29.89 "Hg3 mi
11:30 AM64 °FLight rain. Broken clouds.12 mph88%29.89 "Hg5 mi
11:00 AM64 °FLight rain. Partly sunny.12 mph88%29.92 "HgN/A
10:30 AM64 °FLight rain. Partly sunny.10 mph88%29.92 "HgN/A
10:00 AM64 °FLight rain. Broken clouds.9 mph88%29.92 "Hg5 mi
9:30 AM63 °FLight rain. Partly sunny.9 mph94%29.95 "Hg5 mi
9:00 AM63 °FLight rain. Scattered clouds.7 mph94%29.95 "Hg5 mi
8:30 AM63 °FLight rain. Scattered clouds.7 mph88%29.95 "Hg5 mi
7:30 AM63 °FPassing clouds.6 mph88%29.95 "HgN/A
7:00 AM63 °FPassing clouds.7 mph88%29.95 "HgN/A
6:30 AM61 °FScattered clouds.7 mph88%29.95 "HgN/A
6:00 AM61 °FSprinkles. Passing clouds.6 mph88%29.95 "HgN/A
5:30 AM61 °FSprinkles. Passing clouds.5 mph88%29.95 "HgN/A
5:00 AM61 °FPassing clouds.5 mph88%29.98 "HgN/A
4:30 AM61 °FPassing clouds.5 mph94%29.98 "HgN/A
4:00 AM63 °FPassing clouds.6 mph88%29.98 "HgN/A
3:30 AM63 °FPassing clouds.5 mph88%29.98 "HgN/A
3:00 AM63 °FPassing clouds.6 mph88%29.98 "HgN/A
2:30 AM63 °FPassing clouds.3 mph88%29.98 "HgN/A
2:00 AM63 °FLots of rain. Passing clouds.6 mph88%29.98 "Hg4 mi
1:30 AM64 °FPassing clouds.3 mph78%29.98 "HgN/A
1:00 AM64 °FPassing clouds.8 mph78%30.01 "HgN/A
12:30 AM63 °FClear.7 mph83%30.01 "Hg10 mi
12:00 AM63 °FClear.5 mph83%29.98 "Hg10 mi
11:30 PM
Jul 23
64 °FClear.3 mph78%29.98 "Hg10 mi
11:00 PM64 °FClear.1 mph78%29.98 "Hg10 mi
10:30 PM66 °FPassing clouds.5 mph68%29.98 "HgN/A
10:00 PM64 °FClear.5 mph73%29.98 "Hg10 mi
9:00 PM66 °FSunny.8 mph68%29.98 "Hg10 mi
8:30 PM70 °FSunny.7 mph60%29.98 "Hg10 mi
8:00 PM73 °FSunny.10 mph53%29.98 "Hg10 mi
7:30 PM73 °FSunny.8 mph50%29.98 "Hg10 mi
7:00 PM73 °FSprinkles. Passing clouds.2 mph53%29.98 "HgN/A
6:30 PM72 °FPassing clouds.8 mph53%29.98 "HgN/A
6:00 PM70 °FScattered clouds.14 mph60%30.01 "HgN/A
5:30 PM68 °FSprinkles. Scattered clouds.25 mph69%30.01 "HgN/A
5:00 PM68 °FSprinkles. Scattered clouds.25 mph69%30.01 "HgN/A
4:30 PM75 °FThundershowers. Scattered clouds.17 mph50%29.98 "HgN/A
4:00 PM79 °FThunderstorms. Scattered clouds.14 mph45%29.98 "HgN/A
Weather by CustomWeather, © 2014

See weather overviewHow to use our weather pages